Date String (YYYY-MM-DD hh:mm:ss) UTC,Instrument flags,Ambient pressure (hPa),Sample flow (lpm),Bypass flow (lpm),Sample temperature (°C),Ambient temperature (°C),ASC tube jacket temperature (°C),LED temperature (°C),Box temperature (°C),Sample RH (%),Span deviation,Mass concentration (μg/m³),Mass concentration (μg/m³),Mass concentration (μg/m³)
DateTimeUTC,F1_M11,P_M11,Q1_M11,Q2_M11,T1_M11,T2_M11,T3_M11,T4_M11,T5_M11,U1_M11,ZSPAN_M11,X0_M11,X2_M11,X1_M11
2023-04-26 12:00:00,,0831.8,5.00,0.00,22.7,21.3,00.0,31.0,24.3,27.1,0000.0,0000.61,0000.40,0000.31
2023-04-26 12:01:00,,0831.9,5.00,0.00,22.7,21.3,00.0,31.0,24.3,27.0,0000.0,0000.68,0000.43,0000.32
2023-04-26 12:02:00,,0831.9,5.00,0.00,22.7,21.3,00.0,31.0,24.3,27.1,0000.0,0000.78,0000.48,0000.34
2023-04-26 12:03:00,,0831.9,5.01,0.00,22.7,21.3,00.0,31.0,24.3,27.0,0000.0,0000.96,0000.53,0000.36
2023-04-26 12:04:00,,0832.0,4.99,0.00,22.8,21.3,00.0,31.0,24.3,27.1,0000.0,0001.02,0000.57,0000.40
2023-04-26 12:05:00,,0832.0,4.99,0.00,22.8,21.3,00.0,31.1,24.3,27.1,0000.0,0001.11,0000.62,0000.42
2023-04-26 12:06:00,,0832.0,4.99,0.00,22.8,21.3,00.0,31.1,24.4,27.1,0000.0,0001.56,0000.70,0000.45
2023-04-26 12:07:00,,0832.0,5.01,0.00,22.8,21.3,00.0,31.1,24.4,27.0,0000.0,0002.45,0000.77,0000.49
2023-04-26 12:08:00,,0832.0,5.01,0.00,22.8,21.3,00.0,31.1,24.4,27.0,0000.0,0002.73,0000.87,0000.54
2023-04-26 12:09:00,,0832.0,4.99,0.00,22.8,21.3,00.0,31.1,24.4,27.0,0000.0,0002.97,0000.98,0000.58
2023-04-26 12:10:00,,0832.0,5.00,0.00,22.8,21.3,00.0,31.1,24.3,27.0,0000.0,0004.32,0001.04,0000.61
2023-04-26 12:11:00,,0832.0,4.99,0.00,22.8,21.4,00.0,31.1,24.4,27.0,0000.0,0005.19,0001.10,0000.63
2023-04-26 12:12:00,,0832.0,4.99,0.00,22.8,21.4,00.0,31.1,24.4,27.1,0000.0,0005.24,0001.12,0000.65
2023-04-26 12:13:00,,0832.0,5.01,0.00,22.8,21.4,00.0,31.1,24.4,27.1,0000.0,0006.03,0001.16,0000.67
2023-04-26 12:14:00,,0832.0,5.01,0.00,22.8,21.4,00.0,31.1,24.4,27.1,0000.0,0005.99,0001.13,0000.67
2023-04-26 12:15:00,,0832.0,4.99,0.00,22.8,21.3,00.0,31.1,24.4,27.1,0000.0,0006.20,0001.12,0000.66
2023-04-26 12:16:00,,0832.0,4.99,0.00,22.8,21.4,00.0,31.1,24.4,27.1,0000.0,0006.44,0001.09,0000.65
2023-04-26 12:17:00,,0832.1,4.99,0.00,22.8,21.4,00.0,31.1,24.4,27.1,0000.0,0006.11,0001.05,0000.65
2023-04-26 12:18:00,,0832.0,5.00,0.00,22.8,21.3,00.0,31.1,24.4,27.1,0000.0,0005.24,0001.01,0000.63
2023-04-26 12:19:00,,0832.0,5.01,0.00,22.8,21.4,00.0,31.1,24.4,27.1,0000.0,0005.71,0000.94,0000.60
2023-04-26 12:20:00,,0832.0,5.01,0.00,22.8,21.4,00.0,31.1,24.4,27.1,0000.0,0005.66,0000.86,0000.57
2023-04-26 12:21:00,,0832.0,4.99,0.00,22.8,21.4,00.0,31.1,24.4,27.1,0000.0,0004.32,0000.80,0000.55
2023-04-26 12:22:00,,0832.0,4.99,0.00,22.8,21.3,00.0,31.1,24.4,27.2,0000.0,0003.49,0000.77,0000.54
2023-04-26 12:23:00,,0832.1,5.00,0.00,22.8,21.3,00.0,31.1,24.4,27.2,0000.0,0003.42,0000.74,0000.52
2023-04-26 12:24:00,,0832.1,4.99,0.00,22.8,21.3,00.0,31.1,24.4,27.2,0000.0,0002.75,0000.69,0000.50
2023-04-26 12:25:00,,0832.1,5.00,0.00,22.8,21.3,00.0,31.1,24.4,27.2,0000.0,0002.84,0000.67,0000.49
2023-04-26 12:26:00,,0832.1,5.01,0.00,22.8,21.3,00.0,31.1,24.4,27.2,0000.0,0002.89,0000.70,0000.48
2023-04-26 12:27:00,,0832.1,4.99,0.00,22.8,21.3,00.0,31.1,24.4,27.2,0000.0,0002.57,0000.69,0000.48
2023-04-26 12:28:00,,0832.1,5.01,0.00,22.8,21.4,00.0,31.1,24.4,27.2,0000.0,0002.55,0000.67,0000.46
2023-04-26 12:29:00,,0832.1,5.00,0.00,22.8,21.4,00.0,31.1,24.4,27.2,0000.0,0002.52,0000.64,0000.45
2023-04-26 12:30:00,,0832.1,5.00,0.00,22.8,21.4,00.0,31.1,24.4,27.2,0000.0,0002.09,0000.63,0000.44
2023-04-26 12:31:00,,0832.1,4.99,0.00,22.8,21.3,00.0,31.1,24.4,27.2,0000.0,0001.62,0000.61,0000.44
2023-04-26 12:32:00,,0832.1,4.99,0.00,22.8,21.4,00.0,31.1,24.4,27.2,0000.0,0001.63,0000.61,0000.43
2023-04-26 12:33:00,,0832.2,4.99,0.00,22.8,21.4,00.0,31.1,24.4,27.2,0000.0,0001.63,0000.60,0000.43
2023-04-26 12:34:00,,0832.2,5.01,0.00,22.9,21.4,00.0,31.1,24.4,27.2,0000.0,0001.60,0000.59,0000.42
2023-04-26 12:35:00,,0832.2,5.01,0.00,22.9,21.4,00.0,31.1,24.4,27.1,0000.0,0001.68,0000.59,0000.41
2023-04-26 12:36:00,,0832.2,5.00,0.00,22.9,21.4,00.0,31.1,24.5,27.1,0000.0,0001.35,0000.57,0000.41
2023-04-26 12:37:00,,0832.2,4.99,0.00,22.9,21.4,00.0,31.1,24.4,27.1,0000.0,0001.09,0000.52,0000.39
2023-04-26 12:38:00,,0832.1,5.00,0.00,22.9,21.4,00.0,31.1,24.5,27.1,0000.0,0000.91,0000.49,0000.37
2023-04-26 12:39:00,,0832.2,5.00,0.00,22.9,21.4,00.0,31.2,24.4,27.0,0000.0,0000.87,0000.47,0000.36
2023-04-26 12:40:00,,0832.2,5.00,0.00,22.9,21.4,00.0,31.2,24.4,27.1,0000.0,0000.82,0000.46,0000.35
2023-04-26 12:41:00,,0832.2,4.99,0.00,22.9,21.4,00.0,31.2,24.4,27.1,0000.0,0000.76,0000.43,0000.34
2023-04-26 12:42:00,,0832.2,5.00,0.00,22.9,21.4,00.0,31.2,24.5,27.0,0000.0,0000.69,0000.40,0000.33
2023-04-26 12:43:00,,0832.2,5.00,0.00,22.9,21.4,00.0,31.2,24.5,27.0,0000.0,0000.65,0000.38,0000.32
2023-04-26 12:44:00,,0832.2,5.00,0.00,22.9,21.4,00.0,31.2,24.5,27.0,0000.0,0000.67,0000.38,0000.31
2023-04-26 12:45:00,,0832.2,5.00,0.00,22.9,21.4,00.0,31.2,24.5,27.1,0000.0,0000.68,0000.38,0000.30
2023-04-26 12:46:00,,0832.2,5.00,0.00,22.9,21.4,00.0,31.2,24.5,27.1,0000.0,0000.56,0000.37,0000.30
2023-04-26 12:47:00,,0832.2,5.01,0.00,22.9,21.4,00.0,31.2,24.5,27.2,0000.0,0000.63,0000.39,0000.29
2023-04-26 12:48:00,,0832.2,5.01,0.00,22.9,21.4,00.0,31.2,24.5,27.1,0000.0,0000.61,0000.38,0000.29
2023-04-26 12:49:00,,0832.2,5.00,0.00,22.9,21.4,00.0,31.2,24.5,27.1,0000.0,0000.64,0000.39,0000.29
2023-04-26 12:50:00,,0832.3,5.00,0.00,22.9,21.4,00.0,31.2,24.5,27.2,0000.0,0000.71,0000.42,0000.29
2023-04-26 12:51:00,,0832.3,5.00,0.00,22.9,21.4,00.0,31.2,24.5,27.2,0000.0,0000.69,0000.41,0000.30
2023-04-26 12:52:00,,0832.3,5.00,0.00,22.9,21.4,00.0,31.2,24.5,27.1,0000.0,0000.70,0000.42,0000.29
2023-04-26 12:53:00,,0832.3,4.99,0.00,22.9,21.4,00.0,31.2,24.5,27.1,0000.0,0000.71,0000.42,0000.30
2023-04-26 12:54:00,,0832.3,5.00,0.00,22.9,21.4,00.0,31.2,24.5,27.0,0000.0,0000.72,0000.43,0000.30
2023-04-26 12:55:00,,0832.3,5.00,0.00,22.9,21.4,00.0,31.2,24.5,27.1,0000.0,0000.67,0000.41,0000.30
2023-04-26 12:56:00,,0832.3,5.00,0.00,22.9,21.5,00.0,31.2,24.5,27.0,0000.0,0000.68,0000.41,0000.30
2023-04-26 12:57:00,,0832.3,5.00,0.00,22.9,21.5,00.0,31.2,24.5,27.1,0000.0,0000.66,0000.41,0000.30
2023-04-26 12:58:00,,0832.3,5.01,0.00,22.9,21.5,00.0,31.2,24.5,27.1,0000.0,0000.57,0000.37,0000.29
2023-04-26 12:59:00,,0832.3,5.01,0.00,22.9,21.5,00.0,31.2,24.5,27.2,0000.0,0000.60,0000.39,0000.30
